HEBOWX Weather Reports


Display with metric or nautical units.
time (UTC)temp
F
wind
direction
speed
MPH
gust
MPH
rain 1hr
in
rain 24hr
in
rain mn
in
humidity
%
barometer
mb
20260509055038 47 0 0.0 0.0 0.00 0.00 0.00 72 1019.0
20260509054538 47 0 0.0 0.0 0.00 0.00 0.00 72 1019.0
20260509054038 47 0 0.0 0.0 0.00 0.00 0.00 73 1019.0
20260509053538 47 0 0.0 0.0 0.00 0.00 0.00 73 1019.1
20260509053038 47 0 0.0 0.0 0.00 0.00 0.00 73 1019.1
20260509052540 47 0 0.0 0.0 0.00 0.00 0.00 73 1019.1
20260509052039 47 0 0.0 0.0 0.00 0.00 0.00 73 1019.1
20260509051538 47 0 0.0 0.0 0.00 0.00 0.00 73 1019.1
20260509051038 47 0 0.0 0.0 0.00 0.00 0.00 73 1019.1
20260509050538 47 0 0.0 0.0 0.00 0.00 0.00 73 1019.0
20260509050038 46 0 0.0 0.0 0.00 0.00 0.00 73 1019.0
20260509045538 46 0 0.0 0.0 0.00 0.00 0.00 73 1018.9
20260509045038 46 0 0.0 0.0 0.00 0.00 0.00 73 1018.9
20260509044538 46 0 0.0 0.0 0.00 0.00 0.00 73 1018.9
20260509044038 47 0 0.0 0.0 0.00 0.00 0.00 73 1018.9
20260509043538 47 0 0.0 0.0 0.00 0.00 0.00 73 1018.9
20260509043038 47 0 0.0 0.0 0.00 0.00 0.00 73 1018.9
20260509042039 47 343 0.0 0.0 0.00 0.00 0.00 73 1018.7
20260509041538 47 0 0.0 0.0 0.00 0.00 0.00 73 1018.7
20260509041039 47 0 0.0 0.0 0.00 0.00 0.00 73 1018.7
20260509040538 47 0 0.0 0.0 0.00 0.00 0.00 72 1018.6
20260509040038 48 0 0.0 0.0 0.00 0.00 0.00 71 1018.6
20260509035540 48 0 0.0 0.0 0.00 0.00 0.00 70 1018.6
20260509035038 48 0 0.0 0.0 0.00 0.00 0.00 70 1018.6
20260509034542 48 0 0.0 0.0 0.00 0.00 0.00 69 1018.6
20260509034039 49 0 0.0 0.0 0.00 0.00 0.00 69 1018.6
20260509033538 49 317 0.0 1.0 0.00 0.00 0.00 69 1018.5
20260509033038 49 333 0.0 1.0 0.00 0.00 0.00 68 1018.5
20260509032538 49 280 0.0 1.0 0.00 0.00 0.00 68 1018.9
20260509032038 49 0 0.0 0.0 0.00 0.00 0.00 67 1018.5
20260509031538 50 336 0.0 0.0 0.00 0.00 0.00 68 1018.5
20260509031038 50 338 0.0 0.0 0.00 0.00 0.00 67 1018.7
20260509030538 50 323 0.0 0.0 0.00 0.00 0.00 67 1018.6
20260509030038 51 0 0.0 0.0 0.00 0.00 0.00 67 1018.5
20260509025538 51 0 0.0 0.0 0.00 0.00 0.00 66 1018.6
20260509025038 51 347 0.0 1.0 0.00 0.00 0.00 66 1018.7
20260509024538 51 0 0.0 1.0 0.00 0.00 0.00 66 1018.6
20260509024038 51 347 0.0 1.0 0.00 0.00 0.00 65 1018.9
20260509023538 51 302 0.0 1.0 0.00 0.00 0.00 65 1018.6
20260509023038 51 0 0.0 2.0 0.00 0.00 0.00 65 1018.9
20260509022538 52 302 0.0 2.0 0.00 0.00 0.00 65 1018.7
20260509022038 52 278 0.0 2.0 0.00 0.00 0.00 65 1018.6
20260509021538 52 0 0.0 0.0 0.00 0.00 0.00 65 1018.7
20260509021038 52 0 0.0 0.0 0.00 0.00 0.00 64 1018.6
20260509020538 52 0 0.0 0.0 0.00 0.00 0.00 63 1018.7
20260509020038 52 0 0.0 0.0 0.00 0.00 0.00 63 1018.6
20260509015538 52 0 0.0 0.0 0.00 0.00 0.00 63 1018.9
20260509015038 52 0 0.0 0.0 0.00 0.00 0.00 63 1018.9
20260509014538 52 0 0.0 0.0 0.00 0.00 0.00 63 1018.7
20260509014037 52 0 0.0 0.0 0.00 0.00 0.00 63 1018.6
20260509013538 52 0 0.0 0.0 0.00 0.00 0.00 63 1018.6
20260509013038 52 0 0.0 0.0 0.00 0.00 0.00 63 1018.6
20260509012538 52 0 0.0 0.0 0.00 0.00 0.00 62 1018.9
20260509012038 53 0 0.0 0.0 0.00 0.00 0.00 62 1018.7
20260509011538 53 0 0.0 0.0 0.00 0.00 0.00 62 1018.9
20260509011038 53 0 0.0 0.0 0.00 0.00 0.00 61 1018.9
20260509010538 53 0 0.0 0.0 0.00 0.00 0.00 61 1018.7
20260509010038 53 0 0.0 0.0 0.00 0.00 0.00 61 1019.0
20260509005538 53 0 0.0 0.0 0.00 0.00 0.00 61 1018.9
20260509005038 53 0 0.0 0.0 0.00 0.00 0.00 61 1019.2
20260509004538 53 0 0.0 0.0 0.00 0.00 0.00 54 1019.1
20260509004038 53 0 0.0 0.0 0.00 0.00 0.00 61 1019.2
20260509003537 53 0 0.0 0.0 0.00 0.00 0.00 61 1019.0
20260509003038 53 0 0.0 0.0 0.00 0.00 0.00 59 1018.9
20260509002538 53 0 0.0 0.0 0.00 0.00 0.00 60 1019.3
20260509002038 53 0 0.0 0.0 0.00 0.00 0.00 60 1019.0
20260509001537 53 0 0.0 0.0 0.00 0.00 0.00 60 1019.3
20260509001037 53 0 0.0 0.0 0.00 0.00 0.00 60 1019.0
20260509000537 53 0 0.0 0.0 0.00 0.00 0.00 60 1019.0
20260509000037 53 323 0.0 2.0 0.00 0.00 0.00 60 1019.2
20260508235537 53 0 0.0 2.0 0.00 0.00 0.00 59 1019.0
20260508235038 53 42 0.0 2.0 0.00 0.00 0.00 59 1019.0
20260508234537 53 0 0.0 0.0 0.00 0.00 0.00 59 1019.0
20260508234037 53 0 0.0 0.0 0.00 0.00 0.00 58 1019.2
20260508233537 53 0 0.0 0.0 0.00 0.00 0.00 59 1019.0
20260508233038 53 0 0.0 0.0 0.00 0.00 0.00 58 1019.1
20260508232538 53 0 0.0 0.0 0.00 0.00 0.00 58 1019.3
20260508232038 53 0 0.0 0.0 0.00 0.00 0.00 58 1019.1
20260508231537 54 0 0.0 0.0 0.00 0.00 0.00 57 1019.1
20260508231037 53 0 0.0 0.0 0.00 0.00 0.00 58 1019.1
20260508230537 54 256 0.0 0.0 0.00 0.00 0.00 57 1019.2
20260508230037 54 0 0.0 2.0 0.00 0.00 0.00 55 1019.0
20260508225537 54 0 0.0 2.0 0.00 0.00 0.00 55 1019.2
20260508225037 55 308 0.0 2.0 0.00 0.00 0.00 55 1019.1
20260508224537 55 0 0.0 0.0 0.00 0.00 0.00 55 1019.1
20260508224037 55 0 0.0 0.0 0.00 0.00 0.00 54 1018.9
20260508223537 55 0 0.0 1.0 0.00 0.00 0.00 54 1019.0
20260508223037 55 343 0.0 1.0 0.00 0.00 0.00 54 1018.9
20260508222537 55 334 0.0 1.0 0.00 0.00 0.00 55 1019.0
20260508222037 55 0 0.0 0.0 0.00 0.00 0.00 55 1018.9
20260508221537 55 0 0.0 0.0 0.00 0.00 0.00 54 1018.9
20260508221037 55 0 0.0 0.0 0.00 0.00 0.00 53 1018.7
20260508220537 55 0 0.0 1.0 0.00 0.00 0.00 54 1018.9
20260508220037 55 0 0.0 1.0 0.00 0.00 0.00 48 1019.0
20260508215537 55 308 0.0 1.0 0.00 0.00 0.00 53 1019.0
20260508215037 55 0 0.0 4.0 0.00 0.00 0.00 54 1019.1
20260508214537 55 266 0.0 4.0 0.00 0.00 0.00 54 1018.7
20260508214037 55 253 0.0 4.0 0.00 0.00 0.00 54 1018.7
20260508213537 54 273 0.0 4.0 0.00 0.00 0.00 55 1018.9
20260508213037 54 287 0.0 4.0 0.00 0.00 0.00 55 1018.7
20260508212537 54 282 0.0 4.0 0.00 0.00 0.00 54 1018.9
20260508212037 54 221 0.0 3.0 0.00 0.00 0.00 56 1018.6
20260508211537 54 263 0.0 3.0 0.00 0.00 0.00 57 1018.6
20260508211037 54 0 0.0 2.0 0.00 0.00 0.00 58 1018.6
20260508210537 53 291 0.0 2.0 0.00 0.00 0.00 59 1018.5
20260508210037 53 282 0.0 3.0 0.00 0.00 0.00 59 1018.5
20260508205537 53 268 0.0 3.0 0.00 0.00 0.00 59 1018.6
20260508205037 53 266 0.0 3.0 0.00 0.00 0.00 58 1018.6
20260508204537 53 0 0.0 1.0 0.00 0.00 0.00 59 1018.4
20260508204037 53 267 0.0 1.0 0.00 0.00 0.00 60 1018.6
20260508203537 53 0 0.0 4.0 0.00 0.00 0.00 60 1018.3
20260508203037 52 281 0.0 4.0 0.00 0.00 0.00 55 1018.4
20260508202537 52 267 1.0 4.0 0.00 0.00 0.00 60 1018.4
20260508202037 52 309 0.0 3.0 0.00 0.00 0.00 61 1018.3
20260508201538 52 298 0.0 2.0 0.00 0.00 0.00 60 1018.1
20260508201037 52 250 0.0 2.0 0.00 0.00 0.00 62 1018.3
20260508200537 51 263 0.0 2.0 0.00 0.00 0.00 62 1018.2
20260508200037 51 260 0.0 2.0 0.00 0.00 0.00 62 1018.2
20260508195537 51 252 0.0 4.0 0.00 0.00 0.00 64 1018.1
20260508195037 50 254 2.0 4.0 0.00 0.00 0.00 64 1018.3
20260508194537 50 282 0.0 4.0 0.00 0.00 0.00 63 1018.1
20260508194037 50 243 2.0 2.0 0.00 0.00 0.00 64 1018.2
20260508193537 49 280 0.0 5.0 0.00 0.00 0.00 66 1018.1
20260508193037 49 263 0.0 5.0 0.00 0.00 0.00 66 1018.1
20260508192541 48 249 0.0 5.0 0.00 0.00 0.00 67 1018.2
20260508192038 48 256 0.0 5.0 0.00 0.00 0.00 68 1018.0
20260508191537 47 229 1.0 5.0 0.00 0.00 0.00 69 1018.1
20260508191037 47 224 2.0 5.0 0.00 0.00 0.00 68 1018.0
20260508190537 47 263 0.0 5.0 0.00 0.00 0.00 70 1017.9
20260508190037 46 246 0.0 4.0 0.00 0.00 0.00 70 1017.9
20260508185538 46 0 3.0 3.0 0.00 0.00 0.00 70 1017.7
20260508185037 46 249 0.0 6.0 0.00 0.00 0.00 71 1017.7
20260508184537 46 239 0.0 6.0 0.00 0.00 0.00 70 1017.7
20260508184037 46 254 1.0 6.0 0.00 0.00 0.00 70 1018.0
20260508183537 46 225 3.0 6.0 0.00 0.00 0.00 71 1017.6
20260508183037 45 217 0.0 6.0 0.00 0.00 0.00 71 1017.5
20260508182541 45 224 0.0 6.0 0.00 0.00 0.00 70 1017.7
20260508182037 45 256 0.0 5.0 0.00 0.00 0.00 70 1017.4
20260508181537 45 201 0.0 2.0 0.00 0.00 0.00 71 1017.4
20260508181037 45 247 0.0 2.0 0.00 0.00 0.00 71 1017.5
20260508180537 44 242 0.0 8.0 0.00 0.00 0.00 70 1017.5
20260508180037 45 263 2.0 8.0 0.00 0.00 0.00 70 1017.4
20260508175537 45 250 0.0 8.0 0.00 0.00 0.00 69 1017.6
20260508175039 44 260 2.0 7.0 0.00 0.00 0.00 69 1017.4
20260508174537 44 267 3.0 7.0 0.00 0.00 0.00 69 1017.2
20260508174037 44 257 1.0 7.0 0.00 0.00 0.00 70 1017.3
20260508173537 44 252 2.0 7.0 0.00 0.00 0.00 70 1017.2
20260508173037 44 236 3.0 9.0 0.00 0.00 0.00 70 1017.1
20260508172538 44 264 0.0 9.0 0.00 0.00 0.00 71 1017.1
20260508172037 44 256 0.0 9.0 0.00 0.00 0.00 70 1017.1
20260508171537 44 266 4.0 7.0 0.00 0.00 0.00 70 1017.0
20260508171038 44 224 0.0 7.0 0.00 0.00 0.00 70 1017.0
20260508170537 44 222 2.0 6.0 0.00 0.00 0.00 70 1017.0
20260508170037 44 197 0.0 8.0 0.00 0.00 0.00 71 1016.9
20260508165537 44 225 2.0 8.0 0.00 0.00 0.00 71 1017.1
20260508165037 43 245 2.0 8.0 0.00 0.00 0.00 71 1016.9
20260508164537 43 235 1.0 7.0 0.00 0.00 0.00 71 1016.9
20260508164037 43 229 1.0 5.0 0.00 0.00 0.00 71 1016.7
20260508163537 43 249 0.0 8.0 0.00 0.00 0.00 71 1016.7
20260508163037 43 267 2.0 8.0 0.00 0.00 0.00 67 1016.6
20260508162537 43 243 0.0 8.0 0.00 0.00 0.00 72 1016.7
20260508162037 43 240 1.0 6.0 0.00 0.00 0.00 72 1016.5
20260508161537 43 250 0.0 6.0 0.00 0.00 0.00 72 1016.4
20260508161037 43 226 1.0 5.0 0.00 0.00 0.00 72 1016.4
20260508160537 43 224 0.0 5.0 0.00 0.00 0.00 72 1016.3
20260508160036 43 228 0.0 5.0 0.00 0.00 0.00 71 1016.3
20260508155537 43 268 2.0 8.0 0.00 0.00 0.00 71 1016.3
20260508155037 43 252 2.0 8.0 0.00 0.00 0.00 71 1016.3
20260508154537 43 280 1.0 8.0 0.00 0.00 0.00 71 1016.3
20260508154036 43 263 2.0 8.0 0.00 0.00 0.00 71 1016.5
20260508153537 44 214 0.0 6.0 0.00 0.00 0.00 71 1016.2
20260508153036 44 222 1.0 6.0 0.00 0.00 0.00 71 1016.0
20260508152536 44 238 0.0 6.0 0.00 0.00 0.00 71 1016.2
20260508152036 44 254 1.0 6.0 0.00 0.00 0.00 70 1016.4
20260508151536 44 0 2.0 2.0 0.00 0.00 0.00 72 1016.0
20260508151036 44 0 0.0 0.0 0.00 0.00 0.00 72 1015.9
20260508150536 44 0 0.0 0.0 0.00 0.00 0.00 73 1015.3
20260508150036 44 0 0.0 5.0 0.00 0.00 0.00 73 1015.7
20260508145536 43 0 0.0 5.0 0.00 0.00 0.00 73 1015.5
20260508145036 43 250 0.0 5.0 0.00 0.00 0.00 74 1015.5
20260508144536 43 0 0.0 1.0 0.00 0.00 0.00 75 1015.4
20260508144038 42 0 0.0 0.0 0.00 0.00 0.00 76 1014.8
20260508143536 42 0 0.0 6.0 0.00 0.00 0.00 77 1015.1
20260508143036 41 0 0.0 6.0 0.00 0.00 0.00 77 1015.2
20260508142536 41 249 0.0 6.0 0.00 0.00 0.00 76 1015.3
20260508142036 41 236 1.0 6.0 0.00 0.00 0.00 76 1015.2
20260508141536 41 261 0.0 6.0 0.00 0.00 0.00 77 1014.8
20260508141037 41 0 2.0 8.0 0.00 0.00 0.00 77 1014.8
20260508140536 41 253 0.0 8.0 0.00 0.00 0.00 77 1014.5
20260508140036 40 247 0.0 8.0 0.00 0.00 0.00 77 1014.8
20260508135537 41 239 4.0 10.0 0.00 0.00 0.00 77 1015.2
20260508135036 40 235 0.0 10.0 0.00 0.00 0.00 78 1015.0
20260508134536 40 238 3.0 10.0 0.00 0.00 0.00 77 1015.0
20260508134036 40 256 6.0 11.0 0.00 0.00 0.00 77 1015.1
20260508133536 40 259 5.0 11.0 0.00 0.00 0.00 77 1014.8
20260508133036 40 266 6.0 11.0 0.00 0.00 0.00 77 1015.1
20260508132536 40 242 6.0 9.0 0.00 0.00 0.00 77 1015.1
20260508132036 40 250 6.0 12.0 0.00 0.00 0.00 77 1014.8
20260508131536 40 253 6.0 12.0 0.00 0.00 0.00 77 1015.0
20260508131037 40 256 5.0 12.0 0.00 0.00 0.00 77 1015.3
20260508130536 40 224 3.0 13.0 0.00 0.00 0.00 77 1014.8
20260508130036 40 264 4.0 13.0 0.00 0.00 0.00 76 1015.1
20260508125537 40 278 5.0 13.0 0.00 0.00 0.00 76 1014.6
20260508125036 40 235 7.0 13.0 0.00 0.00 0.00 76 1014.8
20260508124536 40 252 6.0 13.0 0.00 0.00 0.00 76 1014.8
20260508124036 40 253 8.0 12.0 0.00 0.00 0.00 76 1014.6
20260508123536 40 256 8.0 12.0 0.00 0.00 0.00 75 1014.6
20260508123036 40 261 7.0 12.0 0.00 0.00 0.00 75 1014.8
20260508122536 40 275 7.0 13.0 0.00 0.00 0.00 74 1014.6
20260508122036 40 267 6.0 13.0 0.00 0.00 0.00 74 1014.7
20260508121536 40 263 6.0 13.0 0.00 0.00 0.00 74 1014.5
20260508121037 40 249 7.0 12.0 0.00 0.00 0.00 74 1014.7
20260508120536 40 263 9.0 11.0 0.00 0.00 0.00 73 1014.5
20260508120036 40 256 8.0 11.0 0.00 0.00 0.00 73 1014.6
20260508115536 40 263 7.0 14.0 0.00 0.00 0.00 73 1014.5
20260508115036 40 264 6.0 14.0 0.00 0.00 0.00 73 1014.3
20260508114537 40 263 6.0 14.0 0.00 0.00 0.00 73 1014.3
20260508114036 40 246 8.0 12.0 0.00 0.00 0.00 73 1014.4
20260508113536 40 264 7.0 12.0 0.00 0.00 0.00 72 1014.3
20260508113036 40 250 7.0 12.0 0.00 0.00 0.00 71 1014.3
20260508112536 41 259 8.0 11.0 0.00 0.00 0.00 71 1014.2
20260508112036 40 254 9.0 14.0 0.00 0.00 0.00 71 1014.2
20260508111538 41 271 7.0 14.0 0.00 0.00 0.00 71 1014.1
20260508111037 41 252 7.0 14.0 0.00 0.00 0.00 70 1014.0
20260508110536 41 261 7.0 12.0 0.00 0.00 0.00 69 1014.1
20260508110036 41 267 6.0 12.0 0.00 0.00 0.00 68 1014.0
20260508105536 41 267 8.0 14.0 0.00 0.00 0.00 68 1014.2
20260508105036 41 267 9.0 14.0 0.00 0.00 0.00 67 1014.1
20260508104536 41 281 7.0 14.0 0.00 0.00 0.00 67 1014.2
20260508104037 41 277 7.0 11.0 0.00 0.00 0.00 66 1014.0
20260508103536 41 264 7.0 11.0 0.00 0.00 0.00 65 1014.0
20260508103036 41 270 7.0 11.0 0.00 0.00 0.00 65 1013.8
20260508102536 42 261 8.0 10.0 0.00 0.00 0.00 64 1014.3
20260508102036 42 264 7.0 9.0 0.00 0.00 0.00 62 1013.7
20260508101537 42 253 6.0 9.0 0.00 0.00 0.00 59 1013.8
20260508101036 42 274 6.0 9.0 0.00 0.00 0.00 56 1014.0
20260508100536 43 260 6.0 10.0 0.00 0.00 0.00 53 1013.7
20260508100036 43 257 6.0 10.0 0.00 0.00 0.00 52 1013.7
20260508095536 44 271 4.0 10.0 0.00 0.00 0.00 50 1013.7
20260508095036 44 266 6.0 9.0 0.00 0.00 0.00 41 1013.7
20260508094038 46 256 5.0 9.0 0.00 0.00 0.00 39 1013.7
20260508093536 46 266 4.0 9.0 0.00 0.00 0.00 20 1013.7
20260508093036 46 274 6.0 8.0 0.00 0.00 0.00 15 1013.7
20260508092536 47 260 6.0 8.0 0.00 0.00 0.00 13 1013.8
20260508092036 47 261 5.0 8.0 0.00 0.00 0.00 11 1013.6
20260508091536 46 274 5.0 8.0 0.00 0.00 0.00 11 1013.6
20260508091036 47 242 6.0 8.0 0.00 0.00 0.00 10 1013.8
20260508090536 47 257 5.0 8.0 0.00 0.00 0.00 8 1013.6
20260508090036 47 284 5.0 8.0 0.00 0.00 0.00 8 1013.8
20260508085536 47 254 3.0 9.0 0.00 0.00 0.00 8 1013.8
20260508085037 47 267 4.0 9.0 0.00 0.00 0.00 8 1013.6
20260508084536 47 252 5.0 9.0 0.00 0.00 0.00 9 1013.6
20260508084036 47 246 7.0 8.0 0.00 0.00 0.00 8 1013.8
20260508083536 47 253 5.0 8.0 0.00 0.00 0.00 8 1013.5
20260508083036 47 257 5.0 7.0 0.00 0.00 0.00 8 1013.4
20260508082536 47 250 4.0 7.0 0.00 0.00 0.00 8 1013.6
20260508082036 47 249 5.0 9.0 0.00 0.00 0.00 8 1013.6
20260508081536 47 253 5.0 9.0 0.00 0.00 0.00 8 1013.5
20260508081036 47 259 6.0 9.0 0.00 0.00 0.00 7 1013.6
20260508080536 47 254 6.0 9.0 0.00 0.00 0.00 7 1013.6
20260508080036 47 257 5.0 9.0 0.00 0.00 0.00 8 1013.8
20260508075536 47 254 5.0 9.0 0.00 0.00 0.00 8 1013.7
20260508075036 47 256 5.0 9.0 0.00 0.00 0.00 8 1013.7
20260508074536 48 249 6.0 9.0 0.00 0.00 0.00 8 1013.6
20260508074036 48 249 4.0 9.0 0.00 0.00 0.00 9 1013.6
20260508073536 48 263 6.0 9.0 0.00 0.00 0.00 9 1013.5
20260508073036 48 246 6.0 8.0 0.00 0.00 0.00 8 1013.6
20260508072536 48 247 6.0 8.0 0.00 0.00 0.00 8 1013.6
20260508072037 48 268 6.0 8.0 0.00 0.00 0.00 7 1013.6
20260508071536 48 257 6.0 8.0 0.00 0.00 0.00 7 1013.6
20260508071036 48 242 6.0 8.0 0.00 0.00 0.00 7 1014.0
20260508070536 48 247 5.0 6.0 0.00 0.00 0.00 7 1013.7
20260508070036 49 249 4.0 7.0 0.00 0.00 0.00 7 1014.1
20260508065536 49 252 5.0 7.0 0.00 0.00 0.00 7 1013.8
20260508065036 49 253 5.0 7.0 0.00 0.00 0.00 7 1013.6
20260508064536 49 254 2.0 7.0 0.00 0.00 0.00 7 1013.7
20260508064036 49 250 2.0 7.0 0.00 0.00 0.00 7 1013.6
20260508063537 50 249 3.0 7.0 0.00 0.00 0.00 7 1013.7
20260508063036 50 254 3.0 6.0 0.00 0.00 0.00 7 1013.8
20260508062538 49 250 3.0 6.0 0.00 0.00 0.00 7 1014.1
20260508062035 50 254 3.0 6.0 0.00 0.00 0.00 7 1013.7
20260508061535 50 254 3.0 7.0 0.00 0.00 0.00 7 1013.8
20260508061036 49 239 3.0 7.0 0.00 0.00 0.00 6 1013.8
20260508060536 50 250 2.0 7.0 0.00 0.00 0.00 7 1013.7
20260508060035 50 249 2.0 7.0 0.00 0.00 0.00 7 1014.2
20260508055536 49 257 3.0 7.0 0.00 0.00 0.00 8 1014.2